Starlink 32833

operational
NORAD ID: 62873 Int'l Des: 2025-022 Owner: SPXS Country: US Constellation: starlink
LEOCIRCULAR

About Starlink 32833

Description loading...

Live Position

Loading 3D Globe...

Upcoming Passes

Altitude History

Altitude vs Time

uPlot chart will show altitude changes over time

Two-Line Element Set

1 62873U 25022V 25259.31468851 .00026284 00000-0 89617-3 0 9992
2 62873 53.1567 219.4923 0001046 85.0932 275.0188 15.30209525 35206
Epoch: Sep 16, 2025 • Age: 18 hours

Current Status

Altitude 476.9 km
Velocity 7.63 km/s
Sub-Earth Point 33.59°N, 10.69°W
Launch Date Feb 2, 2025
Age 0.6 years
Type internet

Technical Details

Classification Payload
Mass 730.00 kg
Dry Mass 700.00 kg
Total Mass 730.00 kg
Length 0.30 m
Diameter 4.10 m
Span 29.00 m
Shape Box + pan
Manufacturer SPXS
Bus Type Starlink V2M
Phase Status In Orbit
Owner/State SPXS/US

Large Constellations

Loading constellations...